Location: Bronschhofen
(47.4788°N, 9.0353°E)
Time: 21:18:04
(UTC+00:00)

CZ-2C R/B - Pass Details

Date: 20 May 2022
Orbit: 667 x 784 km, 98.3° (Epoch: 01 July)

Event Time Altitude Azimuth Distance (km) Brightness Sun altitude
Rises 02:26:43 0° 19° (NNE) 3,285 7.1 -10.7°
Reaches altitude 10° 02:29:12 10° 27° (NNE) 2,348 6.4 -10.4°
Maximum altitude 02:34:06 42° 97° (E) 1,105 3.7 -9.8°
Drops below altitude 10° 02:38:53 10° 168° (SSE) 2,290 4.7 -9.2°
Sets 02:41:16 0° 175° (S) 3,194 5.3 -8.9°
